Regional Weather Roundup
Issued by NWS

Home | Current Version | Previous Version | Text Only | Print | Product List | Glossary Off
Versions: 1 2 3 4 5 6 7 8 9 10 11 12 13 14 15 16 17 18 19 20 21 22 23 24 25 26 27 28 29 30 31 32 33 34 35 36 37 38 39 40 41 42 43 44 45 46 47 48 49 50

000
ASUS43 KBIS 272210
RWRND

NORTH DAKOTA REGIONAL WEATHER ROUNDUP
NATIONAL WEATHER SERVICE BISMARCK ND
500 PM CDT TUE SEP 27 2016

NOTE: "FAIR" INDICATES FEW OR NO CLOUDS BELOW 12,000 FEET WITH NO
SIGNIFICANT WEATHER AND/OR OBSTRUCTIONS TO VISIBILITY.


NDZ001>003-009>011-017-272300-
NORTHWEST NORTH DAKOTA

CITY           SKY/WX    TMP DP  RH WIND       PRES   REMARKS
WILLISTON      SUNNY     79  49  34 SW6       29.91F
MINOT          SUNNY     72  40  31 VRB5      29.93S
MINOT AFB      SUNNY     70  40  34 N8        29.92S
$$

NDZ018>021-031>035-040>046-272300-
SOUTHWEST NORTH DAKOTA

CITY           SKY/WX    TMP DP  RH WIND       PRES   REMARKS
BISMARCK       SUNNY     72  42  34 N8        29.93S
DICKINSON      HAZE      77  44  30 NW7       29.93S VSB 1/2
GARRISON         N/A     71  43  36 S7        29.93S
HETTINGER ARPT SUNNY     80  45  28 NW7       29.96S
$$

NDZ004>008-012>016-024-026-027-054-272300-
NORTHEAST NORTH DAKOTA

CITY           SKY/WX    TMP DP  RH WIND       PRES   REMARKS
GRAND FORKS    MOSUNNY   59  44  57 N21G26    29.90R
GRND FRKS AFB  SUNNY     60  44  56 NE15      29.91R
DEVILS LAKE    SUNNY     65  28  24 N14       29.93S
$$

NDZ022-023-025-028>030-036>039-047>053-272300-
SOUTHEAST NORTH DAKOTA

CITY           SKY/WX    TMP DP  RH WIND       PRES   REMARKS
FARGO          SUNNY     62  40  44 N17G28    29.88R
JAMESTOWN      SUNNY     66  29  24 N15       29.91R
$$





USA.gov is the U.S. government's official web portal to all federal, state and local government web resources and services.